Location: Cudham
(51.3000°N, 0.0667°E)
Time: 00:59:27
(UTC+00:00)

Cosmos 1271 Rocket - Pass Details

Date: 15 May 2026
Orbit: 421 x 447 km, 81.2° (Epoch: 9 June)

Event Time Altitude Azimuth Distance (km) Brightness Sun altitude
Exits shadow 22:07:03 19° 96° (E) 1,124 4.1 -15.7°
Maximum altitude 22:07:16 19° 91° (E) 1,120 4.1 -15.7°
Drops below altitude 10° 22:09:43 10° 44° (NE) 1,555 5.4 -15.9°
Sets 22:12:10 0° 26° (NNE) 2,424 6.7 -16.1°
